Miscellaneous Local Product
Issued by NWS North Platte, NE

Home | Current Version | Previous Version | Text Only | Print | Product List | Glossary On
Versions: 1 2 3 4 5 6 7 8 9 10 11 12 13 14 15 16 17 18 19 20 21 22 23 24 25 26 27 28 29 30 31 32 33 34 35 36 37 38 39 40 41 42 43 44 45 46 47 48 49 50
000
AXUS43 KLBF 071710
MISLBF


WESTERN AND NORTH CENTRAL NEBRASKA HOURLY WEATHER ROUNDUP
NATIONAL WEATHER SERVICE NORTH PLATTE NE
1200 PM CDT TUE JUL 07 2015

***STATIONS NOT REPORTING VARIABLES SUCH AS SKY/WEATHER OR
PRESSURE ARE PROVIDED BY THE NEBRASKA DEPARTMENT OF
ROADS...RAWS...AND APRS NETWORKS...AND ARE NOT UNDER
NATIONAL WEATHER SERVICE QUALITY CONTROL***

...OBSERVATIONS IN AND NEAR THE EASTERN PANHANDLE OF NEBRASKA...

CITY           SKY/WX    TMP DP  RH WIND       PRES   REMARKS
PINE RIDGE     CLOUDY    68  55  63 S17G23    30.16F
CHADRON        PTSUNNY   70  55  59 S18G24    30.14F
ALLIANCE       CLOUDY    64  54  69 S16       30.20F
SIDNEY         CLOUDY    69  51  52 S17G23    30.22F
WHITECLAY        N/A     69  54  58 S17         N/A
CRESCENT LAKE    N/A     66  54  65 S7G14       N/A
BIG SPRINGS      N/A     71  53  53 SE8         N/A
$$

...OBSERVATIONS IN NORTH CENTRAL NEBRASKA...

CITY           SKY/WX    TMP DP  RH WIND       PRES   REMARKS
VALENTINE      CLOUDY    71  54  54 SE8       30.18F
THEDFORD       MOSUNNY   71  55  57 SE6       30.21S
AINSWORTH      SUNNY     69  56  63 SE6       30.20F
O`NEILL        MOSUNNY   66  54  64 SE5       30.22F
ORD            PTSUNNY   68  53  58 NE6       30.19F
BROKEN BOW     MOSUNNY   69  56  62 VRB6      30.20F HAZE
VALENTINE NWR    N/A     70  55  58 S6          N/A
SPRINGVIEW       N/A     69  57  65 E10         N/A
HALSEY           N/A     70  54  56 S5          N/A
BREWSTER         N/A     75  57  54 S6          N/A
ROSE             N/A     78  69  75 SE8         N/A
NEWPORT          N/A     68  59  73 E10         N/A
SARGENT          N/A     69  57  65 CALM        N/A
CHAMBERS         N/A     71  53  53 MISG        N/A
EWING            N/A     66  55  67 NE3         N/A
$$

...OBSERVATIONS IN SOUTHWEST NEBRASKA AND FAR NORTHEAST COLORADO...

CITY           SKY/WX    TMP DP  RH WIND       PRES   REMARKS
WRAY           PTSUNNY   72  47  40 E12G17    30.22F
HOLYOKE        FAIR      72  52  49 SE9G18    30.21F
IMPERIAL       SUNNY     71  48  43 SE10      30.20F
OGALLALA       CLOUDY    70  51  50 S9        30.20F
NORTH PLATTE   MOSUNNY   71  51  49 E10       30.20F
MCCOOK         SUNNY     71  52  50 VRB5      30.20F HAZE
LEXINGTON      SUNNY     70  54  56 E7        30.20F
PAXTON           N/A     70  55  57 SE5         N/A
GOTHENBURG       N/A     70  51  50 E5          N/A
CALLAWAY         N/A     72  60  66 E6          N/A
$$

...NORTH PLATTE AREA...

CITY           SKY/WX    TMP DP  RH WIND       PRES   REMARKS
AIRPORT        MOSUNNY   71  51  49 E10       30.20F
DOWNTOWN         N/A     71  53  53 CALM        N/A
HILLCREST        N/A     70  53  53 SE5         N/A
$$

...SOME WEATHER OBSERVATIONS FROM AROUND THE REGION...

CITY           SKY/WX    TMP DP  RH WIND       PRES   REMARKS
DENVER         PTSUNNY   67  52  58 S18       30.18F HAZE
LARAMIE        PTSUNNY   60  51  72 SE14      30.24F
CHEYENNE       CLOUDY    57  53  86 S12       30.23F FOG
SCOTTSBLUFF    CLOUDY    65  54  67 SE12      30.18F HAZE
RAPID CITY     MOSUNNY   71  59  65 S18       30.12F
PIERRE         SUNNY     69  56  62 SE15      30.15F
WINNER         FAIR      71  56  58 SE14      30.18F
SIOUX FALLS    PTSUNNY   64  47  53 NE13      30.21S
OMAHA          MOSUNNY   68  50  52 N13       30.15S
GRAND ISLAND   SUNNY     66  54  65 NE9G18    30.20F
KANSAS CITY    CLOUDY    68  60  75 N10       30.08S HAZE
WICHITA        CLOUDY    68  60  75 NE15      30.09R HAZE
HAYS           SUNNY     72  46  40 E18G24    30.17S
LIBERAL        MOSUNNY   68  55  64 NE16      30.18S
GOODLAND       SUNNY     70  46  42 E13       30.21F
$$



USA.gov is the U.S. government's official web portal to all federal, state and local government web resources and services.